User: anonymous   Login
Location: Newark
(51.5033°N, 0.1199°W)
Time: 03:59:28
(UTC+00:00)
Language:

DELFI C3 - Orbit

View from above orbital plane
View from above orbital plane
View from above satellite
View from above satellite

Ground track
Ground track

The orbit data is extracted from the following two-line orbital elements,

1 32789U 08021G   19258.72380013  .00000539  00000-0  39847-4 0  9991
2 32789  97.4569 305.6719 0012463 173.2306 186.9093 15.07106789620378
Epoch (UTC): 15 September 2019 17:22:16
Eccentricity: 0.0012463
inclination: 97.4569°
perigee height: 536 km
apogee height: 553 km
right ascension of ascending node: 305.6719°
argument of perigee: 173.2306°
revolutions per day: 15.07106789
mean anomaly at epoch: 186.9093°
orbit number at epoch: 62037

The dashed part of the orbit path shows where the satellite is in the earth's shadow,  

DLR